Location: Unspecified
(0.0000°N, 0.0000°E)
Time: 16:18:47
(UTC+00:00)

Tiangong - Pass Details

Date: 19 May 2026
Orbit: 380 x 392 km, 41.5° (Epoch: 11 June)

Event Time Altitude Azimuth Distance (km) Brightness Sun altitude
Rises 18:54:24 0° 269° (W) 2,280 3.2 -13.6°
Enters shadow 19:08:21 -15° 32° (NNE) 4,386 3.1 -16.9°
Exits shadow 19:32:19 -61° 65° (ENE) 11,539 5.3 -22.5°
Maximum altitude 04:52:23 28° 44° (NE) 736 0.0 -15.1°
